Location: Hilina Pali Trail
(19.2864°N, 155.2806°W)
Time: 23:23:51
(UTC+00:00)

Daily predictions for brighter satellites

Satellite Brightness Start Highest point End
(mag) Time Altitude Azimuth Time Altitude Azimuth Time Altitude Azimuth
Centaur D-1A AC-31 3.3 13:06:19 64° SSE 13:06:19 64° SSE 23:01:09 10° ESE
ATLAS 3B R/B 3.5 13:06:56 50° ENE 13:06:56 50° ENE 13:12:21 10° NE
ADEOS II 3.7 13:31:56 10° N 13:34:17 27° N 13:34:17 27° N
BREEZE-M DEB (TANK) 4.2 13:42:31 50° E 13:42:31 50° E 13:45:27 10° NE
Palapa B4 Rocket 4.2 13:43:17 59° ESE 13:43:17 59° ESE 13:50:06 10° E
Okean O Rocket 3.9 13:46:23 10° NE 13:49:35 20° E 13:51:44 14° SE
Cosmos 2360 4.4 13:49:27 10° N 13:55:06 68° ENE 14:00:44 10° SSE
USA 238 DEB 4.3 14:01:48 39° NW 14:01:48 39° NW 14:07:37 10° N
USA 238 4.3 14:01:53 40° NW 14:01:53 40° NW 14:07:45 10° N
Cosmos 1655 Rocket 4.3 13:57:25 10° NNW 14:02:31 51° NW 14:02:31 51° NW
Hubble Space Telescope 1.8 14:12:32 39° N 14:12:49 40° NNE 14:16:43 10° E
Cosmos 2266 Rocket 3.9 14:10:09 10° N 14:16:15 82° E 14:22:28 10° S
Delta 2 Rocket 4.3 14:18:57 49° WNW 14:19:53 55° NNW 14:25:15 10° NE
MOS 1-B 4.2 14:14:08 10° N 14:19:55 72° WNW 14:21:48 44° SW
OAO 3 Copernicus 4.3 14:25:21 56° SW 14:25:27 56° SW 14:30:24 10° SE
Cosmos 1602 Rocket 4.2 14:29:32 38° NW 14:29:32 38° NW 14:32:43 10° N
Cosmos 540 Rocket 3.6 14:28:27 48° W 14:28:44 48° WNW 14:33:40 10° N
Cosmos 1707 2.5 14:32:53 61° SSW 14:33:28 79° W 14:37:20 10° N
GPS 2-15 Rocket1 3.4 14:35:07 42° SSW 14:35:31 44° SSW 14:39:56 10° ESE
Cosmos 1812 Rocket 4.4 14:31:12 10° N 14:35:32 50° E 14:39:50 10° SSE
SWIFT 2.2 14:36:18 57° WSW 14:37:04 76° S 14:41:15 10° ESE
Palapa 6 Rocket 3.3 14:35:18 38° WNW 14:37:13 83° NNE 14:43:04 10° E
Cosmos 1980 Rocket 2.5 14:32:52 10° NW 14:38:07 41° WSW 14:43:22 10° S
NOSS 3-2 (C) 3.5 14:36:47 36° WSW 14:38:37 49° WNW 14:44:28 10° NNE
IDEFIX/ARIANE 42P 4.2 14:34:07 10° NE 14:38:50 34° E 14:43:33 10° SSE
DASH 4.5 14:36:42 17° S 14:39:20 32° SE 14:50:36 10° ENE
CZ-4B R/B 3.9 14:35:29 10° NNE 14:39:21 76° ESE 14:42:32 16° S
Cosmos 1953 2.4 14:36:41 10° N 14:40:45 78° E 14:44:46 10° S
Aurora 2 Rocket 2.1 14:45:38 47° SW 14:46:00 50° SSW 14:49:56 10° ESE
Cosmos 1898 Rocket 4.0 14:42:40 10° NW 14:47:23 35° W 14:52:07 10° SSW
SL-16 R/B 2.8 14:41:52 10° N 14:47:27 60° ENE 14:53:01 10° SSE
ASTRO E2 4.3 14:49:43 19° SSW 14:49:43 19° SSW 14:51:48 10° SSE
GPS 2-18 Rocket1 3.8 14:50:46 29° SSW 14:52:00 39° SSE 14:55:34 10° E
Meteor 1-31 Rocket 2.7 14:48:19 10° N 14:52:07 63° WNW 14:54:40 20° SSW
GPS 2-17 Rocket1 3.8 14:51:12 28° SW 14:52:14 32° SSW 14:56:11 10° SE
Cosmos 1238 Rocket 3.9 14:49:52 10° SSW 14:55:37 69° W 15:02:09 10° N
ATLAS 3B R/B 4.2 14:54:13 16° WNW 14:56:12 18° WNW 15:00:53 10° NNW
ATLAS 5 CENTAUR R/B 2.3 14:48:44 20° W 14:57:43 85° S 15:02:05 10° E
Cosmos 1937 Rocket 4.0 14:57:23 10° NW 15:02:03 36° W 15:06:42 10° SSW
BREEZE M DEB (TANK) 3.8 15:03:04 21° WSW 15:04:13 24° SW 15:10:18 10° SSE
Cosmos 1758 4.1 15:00:59 10° NNW 15:04:27 29° W 15:07:55 10° SSW
Cosmos 2322 Rocket 2.2 14:59:20 10° NNW 15:04:57 85° ENE 15:10:33 10° SSE
SJ 16-02 2.5 15:01:35 10° N 15:05:51 48° ENE 15:10:06 10° SSE
USA 161 1.5 15:03:19 10° S 15:06:17 89° WSW 15:09:20 10° N
ERBS 3.6 15:07:25 20° W 15:08:25 24° NW 15:11:12 10° N
Meteor 1-28 Rocket 3.0 15:11:05 10° S 15:14:46 69° W 15:18:28 10° NNW
Cosmos 1553 Rocket 4.1 15:10:35 10° SSW 15:16:49 59° W 15:23:08 10° N
CZ-2C R/B 3.1 15:12:20 10° NNE 15:16:50 53° E 15:21:16 10° S
CENTAUR R/B 2.4 15:14:18 10° SW 15:19:44 60° WNW 15:25:49 10° NNE
CZ-4B R/B 3.9 15:20:30 10° N 15:25:22 33° WNW 15:30:09 10° SW
Okean O Rocket 3.0 15:22:37 10° NNW 15:25:44 20° WNW 15:28:50 10° WSW
In-Cosmos 22 4.2 15:21:50 10° SSW 15:27:24 67° W 15:32:50 10° N
Meteor 2-5 Rocket 4.1 15:24:09 10° SSW 15:29:16 40° W 15:34:26 10° NNW
NOAA 6 4.0 15:24:44 10° N 15:29:52 77° WNW 15:35:00 10° SSW
Cosmos 372 Rocket 3.9 15:32:19 10° NNW 15:37:30 79° WSW 15:42:37 10° S
PAYLOAD A 4.2 15:33:55 10° N 15:39:04 53° WNW 15:44:02 10° SSW
Cosmos 1538 Rocket 4.0 15:35:57 10° SSW 15:41:07 71° WNW 15:46:16 10° N
